"startDT [UTC]","vpos","CH4 [ppm]","stdev(CH4) [ppm]","CO2 [ppm]","stdev(CO2) [ppm]","H2O_reported [%]","stdev(H2O_reported)","CavityPressure [torr]","CavityTemp [C]","OutletValve","CH4_dry [ppm]","CO2_dry [ppm]","DasTemp [C]","EtalonTemp [C]","WarmBoxTemp [C]","MPVPosition","T_ECpre [C]","T_EC1 [C]","T_EC2 [C]","p_inlet [hPa]","p_in [hPa]","p_out [hPa]","T_inlet [C]","RH_inlet [%]","dwpt_inlet [C]","T_vent [C]","RH_vent [%]","dwpt_vent [C]","flow_vent [l min-1]","flow_inlet [l min-1]","dwpt_sample [C]","T_room [C]"
2015-02-26 00:00:00,0.0,1.96062,0.00050,407.144,0.032,0.0790,0.0018,139.997,45.000,34099.23924,1.96220,407.533,32.309,45.068,45.000,0.00,0.09,-272.70,-272.76,-1,970,-0,18.9,2.9,-27.6,19.3,2.9,-27.3,5.73,2.01,-22.1,25.5
2015-02-26 00:01:00,0.0,1.96036,0.00034,407.097,0.030,0.0803,0.0015,139.995,45.000,34096.65455,1.96193,407.492,32.313,45.068,45.000,0.00,0.09,-272.70,-272.76,-1,970,-0,18.9,2.9,-27.6,19.3,2.9,-27.3,5.73,2.01,-22.0,25.5
2015-02-26 00:02:00,0.0,1.96021,0.00028,407.055,0.051,0.0811,0.0012,140.000,45.000,34101.53100,1.96178,407.453,32.308,45.068,45.000,0.00,0.09,-272.70,-272.76,-1,970,-0,18.9,2.9,-27.4,19.3,2.9,-27.2,5.73,2.00,-21.9,25.4
2015-02-26 00:03:00,0.0,1.95946,0.00052,407.032,0.030,0.0816,0.0018,139.997,45.000,34101.04707,1.96108,407.432,32.313,45.068,45.000,0.00,0.09,-272.70,-272.76,-1,970,-0,19.0,3.0,-27.4,19.3,3.0,-27.1,5.73,2.00,-21.9,25.5
2015-02-26 00:04:00,0.0,1.95894,0.00042,406.980,0.045,0.0815,0.0019,140.000,45.000,34101.82761,1.96053,407.380,32.311,45.068,45.000,0.00,0.09,-272.71,-272.76,-1,969,-0,19.0,3.0,-27.3,19.3,3.0,-27.1,5.73,1.99,-21.9,25.5
2015-02-26 00:05:00,0.0,1.95901,0.00040,406.979,0.030,0.0831,0.0020,140.001,45.000,34103.29629,1.96061,407.385,32.309,45.068,45.000,0.00,0.09,-272.70,-272.75,-1,970,-0,19.0,3.0,-27.2,19.3,3.0,-26.9,5.73,1.99,-21.9,25.5
2015-02-26 00:06:00,0.0,1.95866,0.00031,406.957,0.034,0.0847,0.0014,140.001,45.000,34103.72196,1.96027,407.373,32.313,45.068,45.000,0.00,0.09,-272.70,-272.75,-1,970,-0,19.0,3.0,-27.1,19.3,3.0,-26.8,5.73,1.98,-21.9,25.5
2015-02-26 00:07:00,0.0,1.95921,0.00030,406.971,0.030,0.0831,0.0011,139.999,45.000,34103.64883,1.96083,407.377,32.313,45.068,45.000,0.00,0.09,-272.71,-272.76,-1,970,-0,19.0,3.0,-27.0,19.3,3.1,-26.7,5.73,1.98,-21.9,25.5
2015-02-26 00:08:00,0.0,1.95904,0.00041,406.980,0.037,0.0835,0.0013,139.998,45.000,34106.75464,1.96064,407.388,32.314,45.068,45.000,0.00,0.09,-272.71,-272.76,-1,970,-0,19.0,3.0,-27.1,19.3,3.0,-26.8,5.73,1.98,-21.9,25.5
2015-02-26 00:09:00,0.0,1.95945,0.00037,406.997,0.030,0.0827,0.0012,139.999,45.000,34107.17141,1.96105,407.404,32.370,45.068,45.000,0.00,0.09,-272.70,-272.76,-1,969,-0,19.0,3.0,-27.2,19.3,3.0,-26.9,5.73,1.98,-21.9,25.5
2015-02-26 00:10:00,0.0,1.95903,0.00041,406.979,0.021,0.0825,0.0023,140.000,45.000,34107.89405,1.96061,407.383,32.368,45.068,45.000,0.00,0.29,-271.14,-272.53,-1,970,-0,19.0,3.0,-27.2,19.3,3.0,-26.9,5.43,2.10,-23.6,25.5
2015-02-26 00:11:00,0.0,1.95924,0.00037,407.000,0.026,0.0832,0.0018,139.999,45.000,34106.34964,1.96084,407.407,32.375,45.068,45.000,0.00,0.09,-272.71,-272.76,-1,969,-0,19.0,3.0,-27.1,19.3,3.0,-26.9,5.73,1.98,-21.9,25.5
2015-02-26 00:12:00,0.0,1.95902,0.00030,406.980,0.029,0.0831,0.0013,139.998,45.000,34105.84592,1.96064,407.387,32.374,45.068,45.000,0.00,0.09,-272.70,-272.75,-1,970,-0,19.0,3.0,-27.1,19.3,3.0,-26.8,5.73,1.98,-21.9,25.5
2015-02-26 00:13:00,0.0,1.95910,0.00049,406.998,0.040,0.0825,0.0018,140.000,45.000,34109.17024,1.96069,407.403,32.375,45.068,45.000,0.00,0.09,-272.69,-272.75,-1,970,-0,19.0,3.0,-27.2,19.3,3.0,-26.9,5.73,1.98,-21.9,25.6
2015-02-26 00:14:00,0.0,1.95993,0.00051,407.050,0.035,0.0831,0.0017,139.998,45.000,34108.19126,1.96149,407.455,32.375,45.068,45.000,0.00,0.09,-272.71,-272.76,-1,970,-0,19.0,3.0,-27.2,19.3,3.0,-26.9,5.73,1.98,-21.9,25.6
2015-02-26 00:15:00,0.0,1.96024,0.00035,407.086,0.026,0.0825,0.0017,140.000,45.000,34108.56147,1.96182,407.491,32.377,45.068,45.000,0.00,0.09,-272.71,-272.77,-1,970,-0,19.0,3.0,-27.2,19.3,3.0,-26.9,5.73,1.98,-21.9,25.6
2015-02-26 00:16:00,0.0,1.96040,0.00044,407.100,0.038,0.0813,0.0016,139.999,45.000,34107.45092,1.96198,407.498,32.380,45.068,45.000,0.00,0.09,-272.70,-272.76,-1,970,-0,19.0,3.0,-27.3,19.3,3.0,-27.0,5.73,1.99,-21.9,25.6
2015-02-26 00:17:00,0.0,1.96083,0.00034,407.134,0.045,0.0806,0.0014,139.999,45.000,34107.31104,1.96234,407.528,32.396,45.068,45.000,0.00,0.09,-272.71,-272.76,-1,970,-0,19.0,2.9,-27.4,19.3,2.9,-27.1,5.73,1.98,-21.9,25.6
2015-02-26 00:18:00,0.0,1.96145,0.00039,407.194,0.031,0.0803,0.0014,139.999,45.000,34105.42444,1.96297,407.586,32.430,45.068,45.000,0.00,0.09,-272.71,-272.76,-1,970,-0,19.0,2.9,-27.5,19.4,2.9,-27.2,5.73,1.99,-21.9,25.6
2015-02-26 00:19:00,0.0,1.96196,0.00053,407.203,0.034,0.0793,0.0018,140.000,45.000,34106.43276,1.96348,407.591,32.437,45.068,45.000,0.00,0.09,-272.70,-272.75,-1,970,-0,19.1,2.9,-27.6,19.4,2.9,-27.3,5.73,1.99,-21.8,25.5
2015-02-26 00:20:00,0.0,1.96200,0.00037,407.213,0.031,0.0798,0.0016,140.001,45.000,34106.97066,1.96354,407.604,32.449,45.068,45.000,0.00,0.09,-272.70,-272.75,-1,969,-0,19.0,2.9,-27.6,19.4,2.9,-27.3,5.73,2.00,-21.8,25.6
2015-02-26 00:21:00,0.0,1.96195,0.00063,407.211,0.046,0.0784,0.0017,139.999,45.000,34104.09570,1.96353,407.599,32.462,45.068,45.000,0.00,0.09,-272.71,-272.76,-1,970,-0,19.0,2.8,-27.7,19.4,2.9,-27.4,5.73,1.99,-21.9,25.6
2015-02-26 00:22:00,0.0,1.96154,0.00032,407.175,0.027,0.0794,0.0015,139.999,45.000,34106.00387,1.96303,407.563,32.443,45.068,45.000,0.00,0.09,-272.70,-272.76,-1,970,-0,19.0,2.8,-27.7,19.4,2.9,-27.4,5.73,2.00,-21.8,25.6
2015-02-26 00:23:00,0.0,1.96209,0.00042,407.224,0.034,0.0793,0.0024,140.000,45.000,34105.84614,1.96362,407.612,32.468,45.068,45.000,0.00,0.09,-272.69,-272.75,-1,970,-0,19.1,2.8,-27.7,19.4,2.9,-27.4,5.73,2.00,-21.8,25.6
2015-02-26 00:24:00,0.0,1.96225,0.00036,407.217,0.038,0.0791,0.0016,139.999,45.000,34108.59979,1.96379,407.605,32.491,45.068,45.000,0.00,0.09,-272.70,-272.77,-1,970,-0,19.1,2.8,-27.7,19.4,2.9,-27.4,5.73,2.00,-21.8,25.6
2015-02-26 00:25:00,0.0,1.96225,0.00032,407.219,0.021,0.0787,0.0016,139.998,45.000,34107.34817,1.96376,407.604,32.489,45.068,45.000,0.00,0.09,-272.73,-272.76,-1,970,-0,19.1,2.8,-27.7,19.4,2.9,-27.4,5.73,2.00,-21.8,25.6
2015-02-26 00:26:00,0.0,1.96192,0.00039,407.221,0.026,0.0788,0.0021,140.001,45.000,34108.87483,1.96346,407.607,32.468,45.068,45.000,0.00,0.09,-272.69,-272.74,-1,970,-0,19.1,2.8,-27.7,19.4,2.8,-27.5,5.73,2.00,-21.8,25.6
2015-02-26 00:27:00,0.0,1.96168,0.00047,407.190,0.037,0.0789,0.0018,140.000,45.000,34108.89709,1.96324,407.578,32.441,45.068,45.000,0.00,0.09,-272.70,-272.76,-1,970,-0,19.1,2.8,-27.7,19.4,2.9,-27.4,5.73,2.00,-21.8,25.6
2015-02-26 00:28:00,0.0,1.96128,0.00030,407.156,0.028,0.0787,0.0020,140.003,45.000,34109.67034,1.96280,407.541,32.439,45.068,45.000,0.00,0.09,-272.70,-272.76,-1,970,-0,19.1,2.9,-27.6,19.4,2.9,-27.4,5.73,2.00,-21.8,25.6
2015-02-26 00:29:00,0.0,1.96152,0.00034,407.161,0.031,0.0800,0.0016,139.999,45.000,34109.32736,1.96304,407.553,32.438,45.068,45.001,0.00,0.09,-272.70,-272.75,-1,970,-0,19.1,2.9,-27.6,19.4,2.9,-27.3,5.73,2.00,-21.8,25.6
2015-02-26 00:30:00,0.0,1.96140,0.00034,407.149,0.028,0.0797,0.0016,140.000,45.000,34112.19612,1.96295,407.541,32.437,45.069,45.000,0.00,0.09,-272.69,-272.76,-1,970,-0,19.1,2.9,-27.6,19.4,2.9,-27.3,5.73,1.99,-21.8,25.6
2015-02-26 00:31:00,0.0,1.96126,0.00038,407.166,0.041,0.0794,0.0017,139.999,45.000,34114.42149,1.96280,407.553,32.429,45.069,45.001,0.00,0.09,-272.70,-272.76,-1,970,-0,19.1,2.9,-27.6,19.5,2.9,-27.3,5.73,2.00,-21.8,25.6
2015-02-26 00:32:00,0.0,1.96087,0.00047,407.133,0.036,0.0794,0.0021,140.001,45.000,34115.10469,1.96244,407.521,32.419,45.068,45.000,0.00,0.09,-272.70,-272.76,-1,970,-0,19.1,2.9,-27.5,19.5,2.9,-27.2,5.73,1.99,-21.8,25.6
2015-02-26 00:33:00,0.0,1.96117,0.00034,407.129,0.033,0.0803,0.0015,140.001,45.000,34111.11214,1.96269,407.523,32.418,45.068,45.000,0.00,0.09,-272.71,-272.75,-1,970,-0,19.2,2.9,-27.4,19.5,2.9,-27.2,5.73,1.99,-21.7,25.7
2015-02-26 00:34:00,0.0,1.96101,0.00031,407.104,0.038,0.0812,0.0015,140.001,45.000,34110.31485,1.96257,407.501,32.431,45.068,45.000,0.00,0.09,-272.70,-272.77,-1,970,-0,19.2,2.9,-27.4,19.5,2.9,-27.1,5.73,1.99,-21.7,25.7
2015-02-26 00:35:00,0.0,1.96085,0.00051,407.123,0.050,0.0816,0.0017,139.999,45.000,34112.38314,1.96245,407.524,32.438,45.068,45.000,0.00,0.09,-272.71,-272.76,-1,970,-1,19.2,2.9,-27.4,19.5,2.9,-27.0,5.73,1.99,-21.8,25.7
2015-02-26 00:36:00,0.0,1.96073,0.00050,407.117,0.044,0.0819,0.0020,140.000,45.000,34115.36030,1.96229,407.516,32.440,45.068,45.000,0.00,0.09,-272.70,-272.75,-1,970,-0,19.2,2.9,-27.3,19.5,2.9,-27.1,5.73,1.98,-21.8,25.7
2015-02-26 00:37:00,0.0,1.96154,0.00035,407.138,0.037,0.0813,0.0014,140.001,45.000,34114.63290,1.96311,407.539,32.447,45.068,45.000,0.00,0.09,-272.70,-272.76,-1,970,-0,19.2,2.9,-27.4,19.5,2.9,-27.0,5.73,1.99,-21.8,25.7
2015-02-26 00:38:00,0.0,1.96136,0.00041,407.150,0.036,0.0806,0.0020,139.997,45.000,34112.72190,1.96291,407.544,32.484,45.068,45.000,0.00,0.09,-272.70,-272.76,-1,970,-0,19.2,2.9,-27.4,19.5,2.9,-27.1,5.73,1.99,-21.7,25.7
2015-02-26 00:39:00,0.0,1.96138,0.00044,407.115,0.036,0.0813,0.0016,140.003,45.000,34111.96966,1.96298,407.512,32.465,45.068,45.000,0.00,0.09,-272.70,-272.76,-1,970,-0,19.2,2.9,-27.4,19.5,2.9,-27.1,5.73,1.98,-21.7,25.7
2015-02-26 00:40:00,0.0,1.96090,0.00047,407.129,0.039,0.0814,0.0017,140.000,45.000,34113.14317,1.96246,407.529,32.447,45.068,45.000,0.00,0.09,-272.70,-272.75,-1,970,-1,19.2,2.9,-27.4,19.5,2.9,-27.1,5.73,1.99,-21.8,25.7
2015-02-26 00:41:00,0.0,1.96172,0.00044,407.168,0.045,0.0806,0.0018,140.002,45.000,34111.22096,1.96323,407.562,32.452,45.068,45.000,0.00,0.09,-272.70,-272.76,-1,970,-0,19.2,2.9,-27.4,19.5,2.9,-27.0,5.73,1.98,-21.8,25.7
2015-02-26 00:42:00,0.0,1.96081,0.00057,407.106,0.041,0.0818,0.0018,139.999,45.000,34113.24230,1.96243,407.506,32.456,45.068,45.000,0.00,0.09,-272.70,-272.76,-1,970,-0,19.2,2.9,-27.4,19.5,2.9,-27.1,5.73,1.98,-21.8,25.7
2015-02-26 00:43:00,0.0,1.96095,0.00040,407.103,0.038,0.0824,0.0015,139.999,45.000,34114.83177,1.96251,407.506,32.438,45.068,45.000,0.00,0.09,-272.71,-272.76,-1,970,-0,19.2,2.9,-27.3,19.5,2.9,-27.0,5.73,1.99,-21.7,25.7
2015-02-26 00:44:00,0.0,1.96149,0.00025,407.163,0.035,0.0819,0.0015,140.001,45.000,34115.48431,1.96308,407.565,32.468,45.068,45.000,0.00,0.09,-272.71,-272.76,-1,970,-1,19.2,2.9,-27.4,19.5,3.0,-27.0,5.73,1.99,-21.7,25.7
2015-02-26 00:45:00,0.0,1.96177,0.00027,407.184,0.026,0.0814,0.0018,140.001,45.000,34115.42075,1.96331,407.581,32.495,45.068,45.000,0.00,0.09,-272.70,-272.76,-1,970,-0,19.2,2.9,-27.5,19.5,2.9,-27.1,5.73,1.98,-21.7,25.7
2015-02-26 00:46:00,0.0,1.96134,0.00049,407.150,0.052,0.0814,0.0014,140.000,45.000,34116.04980,1.96295,407.550,32.498,45.068,45.000,0.00,0.09,-272.70,-272.75,-1,970,-1,19.2,2.9,-27.5,19.5,2.9,-27.1,5.73,1.99,-21.7,25.7
2015-02-26 00:47:00,0.0,1.96085,0.00044,407.131,0.039,0.0814,0.0011,139.999,45.000,34115.76055,1.96242,407.529,32.505,45.068,45.000,0.00,0.09,-272.70,-272.76,-1,970,-1,19.2,2.9,-27.4,19.5,2.9,-27.1,5.73,1.99,-21.7,25.8
2015-02-26 00:48:00,0.0,1.96081,0.00047,407.104,0.039,0.0820,0.0014,140.001,45.000,34117.19395,1.96239,407.505,32.509,45.068,45.000,0.00,0.09,-272.71,-272.76,-1,970,-0,19.2,2.9,-27.3,19.5,2.9,-27.0,5.73,1.98,-21.7,25.7
2015-02-26 00:49:00,0.0,1.96105,0.00040,407.123,0.024,0.0826,0.0017,139.998,45.000,34117.22974,1.96267,407.528,32.524,45.068,45.000,0.00,0.09,-272.70,-272.76,-1,970,-0,19.2,2.9,-27.3,19.5,2.9,-27.0,5.73,1.98,-21.7,25.7
2015-02-26 00:50:00,0.0,1.96125,0.00056,407.117,0.027,0.0816,0.0016,140.000,45.000,34116.85743,1.96279,407.516,32.539,45.068,45.000,0.00,0.09,-272.70,-272.75,-1,970,-0,19.2,2.9,-27.3,19.5,2.9,-27.0,5.73,1.99,-21.7,25.7
2015-02-26 00:51:00,0.0,1.96112,0.00030,407.092,0.039,0.0831,0.0013,140.001,45.000,34117.76678,1.96273,407.499,32.559,45.068,45.000,0.00,0.09,-272.70,-272.76,-1,970,-0,19.2,2.9,-27.3,19.5,3.0,-27.0,5.73,1.98,-21.7,25.7
2015-02-26 00:52:00,0.0,1.96123,0.00032,407.112,0.041,0.0827,0.0016,139.998,45.000,34114.93530,1.96287,407.519,32.551,45.068,45.000,0.00,0.09,-272.70,-272.76,-2,970,-0,19.2,2.9,-27.3,19.5,3.0,-26.9,5.73,1.98,-21.7,25.7
2015-02-26 00:53:00,0.0,1.95991,0.00049,407.023,0.036,0.0828,0.0019,139.997,45.001,34116.67158,1.96151,407.430,32.552,45.068,45.000,0.00,0.09,-272.69,-272.75,-2,970,-0,19.2,2.9,-27.2,19.5,3.0,-26.9,5.73,1.98,-21.7,25.7
2015-02-26 00:54:00,0.0,1.96051,0.00086,407.060,0.056,0.0841,0.0015,140.003,45.000,34117.47906,1.96209,407.469,32.562,45.068,45.000,0.00,0.09,-272.70,-272.75,-2,970,-0,19.2,3.0,-27.1,19.5,3.0,-26.8,5.73,1.98,-21.7,25.8
2015-02-26 00:55:00,0.0,1.96070,0.00030,407.077,0.041,0.0831,0.0020,139.998,45.000,34118.39499,1.96234,407.485,32.559,45.068,45.000,0.00,0.09,-272.70,-272.76,-1,970,-1,19.2,3.0,-27.1,19.5,3.0,-26.8,5.73,1.98,-21.7,25.8
2015-02-26 00:56:00,0.0,1.96037,0.00057,407.072,0.045,0.0847,0.0011,140.001,45.000,34117.60842,1.96195,407.484,32.563,45.068,45.000,0.00,0.09,-272.70,-272.76,-1,970,-1,19.2,3.0,-27.1,19.5,3.0,-26.7,5.73,1.98,-21.7,25.8
2015-02-26 00:57:00,0.0,1.96087,0.00053,407.111,0.031,0.0844,0.0013,139.998,45.000,34116.88306,1.96257,407.526,32.572,45.068,45.000,0.00,0.09,-272.70,-272.76,-1,970,-0,19.2,3.0,-27.1,19.5,3.0,-26.7,5.73,1.99,-21.7,25.8
2015-02-26 00:58:00,0.0,1.96046,0.00053,407.080,0.046,0.0838,0.0021,139.997,45.000,34118.90081,1.96210,407.492,32.579,45.068,45.000,0.00,0.09,-272.71,-272.76,-1,970,-1,19.2,3.0,-27.1,19.6,3.0,-26.8,5.73,1.99,-21.7,25.7
2015-02-26 00:59:00,0.0,1.96072,0.00045,407.060,0.040,0.0845,0.0016,140.003,45.000,34120.38942,1.96231,407.472,32.595,45.068,45.000,0.00,0.09,-272.70,-272.76,-1,970,-0,19.2,3.0,-27.1,19.6,3.0,-26.7,5.73,1.98,-21.7,25.8
2015-02-26 01:00:00,0.0,1.96079,0.00036,407.073,0.036,0.0839,0.0020,140.000,45.000,34120.38535,1.96237,407.485,32.583,45.068,45.000,0.00,0.09,-272.70,-272.75,-1,970,-1,19.2,3.0,-27.1,19.6,3.0,-26.8,5.73,1.99,-21.7,25.7
2015-02-26 01:01:00,0.0,1.96109,0.00040,407.105,0.036,0.0837,0.0015,140.001,45.000,34118.51072,1.96273,407.516,32.564,45.068,45.000,0.00,0.09,-272.71,-272.75,-2,970,-1,19.2,3.0,-27.1,19.6,3.0,-26.8,5.73,1.98,-21.7,25.7
2015-02-26 01:02:00,0.0,1.96057,0.00045,407.056,0.032,0.0842,0.0013,139.998,45.000,34117.18668,1.96223,407.467,32.564,45.068,45.000,0.00,0.09,-272.71,-272.76,-1,970,-1,19.2,3.0,-27.1,19.6,3.0,-26.7,5.73,1.98,-21.7,25.8
2015-02-26 01:03:00,0.0,1.96075,0.00036,407.070,0.034,0.0843,0.0022,140.000,45.000,34119.86033,1.96236,407.482,32.565,45.068,45.000,0.00,0.09,-272.71,-272.76,-1,971,-1,19.2,3.0,-27.0,19.6,3.0,-26.7,5.73,1.99,-21.7,25.8
2015-02-26 01:04:00,0.0,1.96161,0.00063,407.127,0.045,0.0850,0.0018,140.001,45.000,34117.91507,1.96323,407.544,32.563,45.068,45.000,0.00,0.09,-272.70,-272.76,-2,970,-1,19.3,3.0,-27.1,19.6,3.0,-26.7,5.73,1.98,-21.7,25.7
2015-02-26 01:05:00,0.0,1.96074,0.00041,407.069,0.041,0.0846,0.0019,139.999,45.000,34115.20010,1.96236,407.483,32.563,45.068,45.000,0.00,0.09,-272.70,-272.76,-2,971,-1,19.2,3.0,-27.1,19.6,3.0,-26.7,5.73,1.98,-21.7,25.7
2015-02-26 01:06:00,0.0,1.96097,0.00047,407.077,0.033,0.0845,0.0016,139.998,45.000,34118.16560,1.96262,407.491,32.563,45.068,45.000,0.00,0.09,-272.70,-272.76,-1,971,-1,19.3,3.0,-27.1,19.6,3.0,-26.6,5.73,1.98,-21.7,25.8
2015-02-26 01:07:00,0.0,1.96071,0.00064,407.079,0.052,0.0849,0.0025,139.999,45.000,34120.58114,1.96237,407.495,32.566,45.068,45.000,0.00,0.09,-272.70,-272.75,-2,971,-1,19.2,3.0,-27.1,19.6,3.0,-26.7,5.73,1.99,-21.7,25.8
2015-02-26 01:08:00,0.0,1.96118,0.00051,407.111,0.052,0.0845,0.0018,140.000,45.000,34123.15294,1.96276,407.521,32.579,45.068,45.000,0.00,0.09,-272.70,-272.75,-2,970,-1,19.3,3.0,-27.1,19.6,3.0,-26.8,5.73,1.99,-21.7,25.8
2015-02-26 01:09:00,0.0,1.96026,0.00080,407.055,0.060,0.0862,0.0016,139.999,45.000,34122.77447,1.96192,407.478,32.568,45.068,45.000,0.00,0.09,-272.70,-272.76,-2,970,-1,19.3,3.0,-26.8,19.6,3.1,-26.6,5.73,1.98,-21.7,25.8
2015-02-26 01:10:00,0.0,1.96189,0.00021,407.157,0.030,0.0845,0.0020,139.998,45.000,34120.87674,1.96351,407.571,32.561,45.068,45.000,0.00,0.09,-272.70,-272.76,-2,970,-1,19.2,3.0,-27.0,19.6,3.1,-26.6,5.73,1.99,-21.7,25.8
2015-02-26 01:11:00,0.0,1.96171,0.00054,407.157,0.043,0.0831,0.0021,140.002,45.000,34120.49377,1.96333,407.564,32.556,45.068,45.000,0.00,0.09,-272.70,-272.76,-2,971,-1,19.2,2.9,-27.2,19.6,3.0,-26.8,5.73,1.99,-21.7,25.8
2015-02-26 01:12:00,0.0,1.96169,0.00059,407.145,0.042,0.0827,0.0020,139.998,45.000,34118.31613,1.96329,407.554,32.532,45.068,45.000,0.00,0.09,-272.70,-272.76,-1,971,-1,19.2,3.0,-27.2,19.6,3.0,-26.9,5.73,1.99,-21.7,25.8
2015-02-26 01:13:00,0.0,1.96125,0.00023,407.111,0.030,0.0827,0.0020,139.999,45.000,34115.96456,1.96283,407.513,32.522,45.068,45.000,0.00,0.09,-272.70,-272.76,-2,971,-1,19.3,2.9,-27.2,19.6,3.0,-26.9,5.73,1.99,-21.7,25.8
2015-02-26 01:14:00,0.0,1.96159,0.00040,407.141,0.028,0.0838,0.0014,139.997,45.000,34115.81757,1.96323,407.554,32.513,45.068,45.000,0.00,0.09,-272.70,-272.76,-1,970,-1,19.3,3.0,-27.1,19.6,3.0,-26.8,5.73,1.99,-21.7,25.8
2015-02-26 01:15:00,0.0,1.96080,0.00078,407.090,0.063,0.0839,0.0019,139.999,45.000,34115.93760,1.96244,407.501,32.522,45.068,45.000,0.00,0.09,-272.71,-272.76,-1,970,-1,19.3,3.0,-27.1,19.6,3.0,-26.8,5.73,1.99,-21.7,25.8
2015-02-26 01:16:00,0.0,1.96095,0.00049,407.086,0.047,0.0843,0.0018,140.002,45.000,34119.34202,1.96257,407.498,32.535,45.068,45.000,0.00,0.09,-272.70,-272.76,-1,971,-1,19.3,3.0,-27.1,19.6,3.0,-26.8,5.73,1.99,-21.6,25.8
2015-02-26 01:17:00,0.0,1.96061,0.00058,407.040,0.063,0.0849,0.0019,139.999,45.000,34115.70599,1.96225,407.457,32.548,45.068,45.000,0.00,0.09,-272.70,-272.75,-2,971,-1,19.2,3.0,-27.1,19.6,3.0,-26.8,5.73,1.99,-21.7,25.8
2015-02-26 01:18:00,0.0,1.96009,0.00047,406.994,0.046,0.0853,0.0019,140.004,45.000,34116.48309,1.96170,407.411,32.544,45.068,45.000,0.00,0.09,-272.70,-272.76,-2,971,-1,19.3,3.0,-27.0,19.6,3.0,-26.7,5.73,1.99,-21.7,25.8
2015-02-26 01:19:00,0.0,1.96132,0.00039,407.107,0.029,0.0840,0.0013,140.000,45.000,34115.41722,1.96298,407.518,32.528,45.068,45.000,0.00,0.09,-272.70,-272.76,-2,971,-1,19.3,3.0,-27.0,19.6,3.0,-26.6,5.73,1.99,-21.6,25.8
2015-02-26 01:20:00,0.0,1.96149,0.00061,407.123,0.051,0.0838,0.0015,140.001,45.000,34115.20282,1.96312,407.536,32.530,45.068,45.000,0.00,0.09,-272.70,-272.75,-2,971,-1,19.3,3.0,-27.1,19.6,3.0,-26.7,5.73,1.99,-21.6,25.8
2015-02-26 01:21:00,0.0,1.96101,0.00053,407.104,0.038,0.0840,0.0014,139.998,45.000,34115.80085,1.96263,407.512,32.515,45.068,45.000,0.00,0.09,-272.71,-272.75,-2,971,-1,19.3,3.0,-27.1,19.6,3.0,-26.8,5.73,1.99,-21.6,25.8
2015-02-26 01:22:00,0.0,1.96149,0.00060,407.115,0.040,0.0844,0.0014,139.999,45.000,34116.50734,1.96310,407.529,32.509,45.068,45.000,0.00,0.09,-272.70,-272.76,-1,971,-1,19.3,3.0,-27.1,19.6,3.0,-26.8,5.73,1.99,-21.7,25.8
2015-02-26 01:23:00,0.0,1.96098,0.00050,407.062,0.034,0.0838,0.0016,139.998,45.000,34115.03212,1.96262,407.474,32.503,45.068,45.000,0.00,0.09,-272.70,-272.76,-2,970,-1,19.3,3.0,-27.1,19.6,3.0,-26.8,5.73,1.99,-21.6,25.8
2015-02-26 01:24:00,0.0,1.96095,0.00042,407.080,0.051,0.0837,0.0019,140.000,45.000,34114.69046,1.96254,407.489,32.501,45.068,45.000,0.00,0.09,-272.70,-272.76,-2,970,-1,19.2,3.0,-27.1,19.6,3.0,-26.7,5.73,1.99,-21.6,25.8
2015-02-26 01:25:00,0.0,1.96067,0.00079,407.062,0.058,0.0846,0.0018,140.002,45.000,34112.67455,1.96232,407.476,32.500,45.068,45.000,0.00,0.09,-272.71,-272.76,-1,970,-1,19.3,3.0,-27.0,19.6,3.0,-26.7,5.73,1.99,-21.6,25.8
2015-02-26 01:26:00,0.0,1.96049,0.00048,407.026,0.041,0.0860,0.0014,139.999,45.000,34111.39960,1.96215,407.450,32.498,45.068,45.000,0.00,0.09,-272.70,-272.76,-2,971,-1,19.3,3.0,-27.0,19.6,3.0,-26.7,5.73,1.99,-21.6,25.8
2015-02-26 01:27:00,0.0,1.96044,0.00073,407.058,0.055,0.0860,0.0018,140.000,45.000,34109.77256,1.96206,407.478,32.500,45.068,45.000,0.00,0.09,-272.70,-272.75,-2,970,-1,19.3,3.0,-26.9,19.6,3.0,-26.6,5.73,1.99,-21.6,25.8
2015-02-26 01:28:00,0.0,1.96189,0.00033,407.143,0.044,0.0844,0.0021,139.996,45.000,34107.66995,1.96349,407.555,32.498,45.068,45.000,0.00,0.09,-272.71,-272.76,-2,971,-1,19.3,3.0,-27.0,19.6,3.0,-26.6,5.73,1.99,-21.7,25.8
2015-02-26 01:29:00,0.0,1.96169,0.00066,407.151,0.045,0.0834,0.0014,139.998,45.000,34106.84375,1.96333,407.561,32.497,45.068,45.000,0.00,0.09,-272.71,-272.76,-1,971,-1,19.3,3.0,-27.1,19.6,3.0,-26.7,5.73,1.99,-21.6,25.8
2015-02-26 01:30:00,0.0,1.96095,0.00080,407.075,0.056,0.0849,0.0020,140.001,45.000,34109.22203,1.96269,407.494,32.487,45.068,45.000,0.00,0.09,-272.70,-272.75,-2,971,-1,19.2,3.0,-27.1,19.6,3.0,-26.7,5.73,1.99,-21.7,25.8
2015-02-26 01:31:00,0.0,1.96024,0.00076,407.045,0.054,0.0850,0.0017,140.000,45.000,34111.43710,1.96181,407.460,32.481,45.068,45.000,0.00,0.09,-272.70,-272.76,-1,971,-1,19.2,3.0,-27.0,19.6,3.0,-26.7,5.73,1.99,-21.6,25.9
2015-02-26 01:32:00,0.0,1.96148,0.00037,407.123,0.036,0.0848,0.0011,139.999,45.000,34109.33991,1.96310,407.536,32.476,45.068,45.000,0.00,0.09,-272.70,-272.76,-2,971,-1,19.3,3.0,-27.0,19.6,3.0,-26.6,5.73,1.99,-21.6,25.8
2015-02-26 01:33:00,0.0,1.96154,0.00047,407.126,0.030,0.0857,0.0018,140.000,45.000,34109.10206,1.96324,407.548,32.478,45.068,45.000,0.00,0.09,-272.69,-272.76,-2,971,-1,19.3,3.0,-27.0,19.6,3.0,-26.6,5.73,1.99,-21.6,25.9
2015-02-26 01:34:00,0.0,1.96083,0.00068,407.073,0.054,0.0845,0.0017,140.000,45.000,34111.06788,1.96241,407.486,32.474,45.068,45.000,0.00,0.09,-272.69,-272.75,-1,970,-1,19.3,3.0,-27.0,19.6,3.0,-26.7,5.73,1.99,-21.6,25.8
2015-02-26 01:35:00,0.0,1.96179,0.00050,407.097,0.031,0.0847,0.0019,140.000,45.000,34110.05814,1.96344,407.512,32.474,45.068,45.000,0.00,0.09,-272.71,-272.76,-2,971,-1,19.3,3.0,-27.0,19.6,3.0,-26.7,5.73,1.99,-21.6,25.8
2015-02-26 01:36:00,0.0,1.96027,0.00078,407.027,0.052,0.0855,0.0021,140.001,45.000,34109.40147,1.96197,407.446,32.493,45.068,45.000,0.00,0.09,-272.70,-272.76,-2,971,-1,19.3,3.0,-26.9,19.6,3.1,-26.6,5.73,1.99,-21.6,25.8
2015-02-26 01:37:00,0.0,1.96053,0.00043,407.051,0.039,0.0867,0.0017,140.002,45.000,34111.81922,1.96221,407.476,32.498,45.068,45.000,0.00,0.09,-272.70,-272.75,-2,971,-1,19.3,3.1,-26.8,19.6,3.1,-26.5,5.73,1.99,-21.6,25.8
2015-02-26 01:38:00,0.0,1.96011,0.00053,407.022,0.036,0.0866,0.0019,139.998,45.000,34109.39000,1.96179,407.448,32.500,45.068,45.000,0.00,0.09,-272.70,-272.76,-2,970,-1,19.3,3.1,-26.8,19.6,3.1,-26.5,5.73,1.99,-21.6,25.8
2015-02-26 01:39:00,0.0,1.95985,0.00038,406.994,0.041,0.0880,0.0016,139.999,45.000,34112.07254,1.96156,407.426,32.513,45.068,45.000,0.00,0.09,-272.71,-272.77,-2,971,-1,19.3,3.1,-26.7,19.6,3.1,-26.3,5.73,1.99,-21.6,25.8
2015-02-26 01:40:00,0.0,1.96055,0.00033,407.014,0.041,0.0876,0.0022,140.001,45.000,34111.91167,1.96221,407.441,32.522,45.068,45.000,0.00,0.09,-272.70,-272.75,-2,971,-1,19.3,3.1,-26.7,19.6,3.1,-26.4,5.73,1.98,-21.6,25.8
2015-02-26 01:41:00,0.0,1.96011,0.00060,407.019,0.042,0.0872,0.0014,139.999,45.000,34110.41892,1.96178,407.444,32.506,45.068,45.000,0.00,0.09,-272.70,-272.75,-2,971,-1,19.2,3.1,-26.7,19.6,3.1,-26.4,5.73,1.98,-21.6,25.8
2015-02-26 01:42:00,0.0,1.96075,0.00053,407.064,0.042,0.0867,0.0019,140.000,45.000,34109.59584,1.96246,407.491,32.501,45.068,45.000,0.00,0.09,-272.70,-272.76,-2,971,-1,19.3,3.1,-26.7,19.6,3.1,-26.4,5.73,1.98,-21.6,25.8
2015-02-26 01:43:00,0.0,1.95923,0.00049,406.957,0.046,0.0878,0.0017,139.999,45.000,34112.10151,1.96093,407.388,32.498,45.068,45.000,0.00,0.09,-272.70,-272.76,-1,970,-1,19.2,3.1,-26.7,19.6,3.1,-26.4,5.73,1.99,-21.6,25.8
2015-02-26 01:44:00,0.0,1.96023,0.00043,407.013,0.025,0.0878,0.0018,140.001,45.000,34112.94295,1.96191,407.444,32.460,45.068,45.000,0.00,0.09,-272.70,-272.76,-1,971,-1,19.2,3.1,-26.7,19.6,3.1,-26.3,5.73,1.99,-21.6,25.9
2015-02-26 01:45:00,0.0,1.96061,0.00043,407.050,0.030,0.0863,0.0014,139.999,45.000,34114.09437,1.96225,407.471,32.442,45.068,45.000,0.00,0.09,-272.70,-272.76,-1,971,-1,19.2,3.1,-26.8,19.6,3.1,-26.4,5.73,1.98,-21.6,25.9
2015-02-26 01:46:00,0.0,1.96069,0.00053,407.046,0.043,0.0864,0.0022,140.000,45.000,34110.39971,1.96234,407.470,32.440,45.068,45.000,0.00,0.09,-272.70,-272.76,-2,971,-1,19.3,3.1,-26.8,19.6,3.1,-26.4,5.73,1.99,-21.6,25.9